Time,TemperatureF,DewpointF,PressureIn,WindDirection,WindDirectionDegrees,WindSpeedMPH,WindSpeedGustMPH,Humidity,HourlyPrecipIn,Conditions,Clouds,dailyrainin,SolarRadiationWatts/m^2,SoftwareType,DateUTC
2013-06-18 00:02:00,72.0,60.0,-100.00,East,85,13.0,19.0,66,0.00,,,0.00,0.000000,,2013-06-18 10:02:00,
2013-06-18 00:11:00,72.0,60.0,-100.00,East,85,13.0,19.0,66,0.00,,,0.00,0.000000,,2013-06-18 10:11:00,
2013-06-18 00:22:00,72.0,60.0,-100.00,East,85,13.0,19.0,66,0.00,,,0.00,0.000000,,2013-06-18 10:22:00,
2013-06-18 00:33:00,72.0,60.0,-100.00,East,85,13.0,19.0,66,0.00,,,0.00,0.000000,,2013-06-18 10:33:00,
2013-06-18 01:02:00,70.0,58.0,-100.00,East,95,10.0,24.0,66,0.00,,,0.00,0.000000,,2013-06-18 11:02:00,
2013-06-18 01:11:00,70.0,58.0,-100.00,East,95,10.0,24.0,66,0.00,,,0.00,0.000000,,2013-06-18 11:11:00,
2013-06-18 01:22:00,70.0,58.0,-100.00,East,95,10.0,24.0,66,0.00,,,0.00,0.000000,,2013-06-18 11:22:00,
2013-06-18 01:32:00,70.0,58.0,-100.00,East,95,10.0,24.0,66,0.00,,,0.00,0.000000,,2013-06-18 11:32:00,
2013-06-18 02:01:00,70.0,59.0,-100.00,ENE,78,10.0,15.0,69,0.00,,,0.00,0.000000,,2013-06-18 12:01:00,
2013-06-18 02:11:00,70.0,59.0,-100.00,ENE,78,10.0,15.0,69,0.00,,,0.00,0.000000,,2013-06-18 12:11:00,
2013-06-18 02:22:00,70.0,59.0,-100.00,ENE,78,10.0,15.0,69,0.00,,,0.00,0.000000,,2013-06-18 12:22:00,
2013-06-18 02:32:00,70.0,59.0,-100.00,ENE,78,10.0,15.0,69,0.00,,,0.00,0.000000,,2013-06-18 12:32:00,
2013-06-18 03:02:00,68.0,58.0,-100.00,East,99,9.0,15.0,70,0.00,,,0.00,0.000000,,2013-06-18 13:02:00,
2013-06-18 03:11:00,68.0,58.0,-100.00,East,99,9.0,15.0,70,0.00,,,0.00,0.000000,,2013-06-18 13:11:00,
2013-06-18 03:22:00,68.0,58.0,-100.00,East,99,9.0,15.0,70,0.00,,,0.00,0.000000,,2013-06-18 13:22:00,
2013-06-18 03:33:00,68.0,58.0,-100.00,East,99,9.0,15.0,70,0.00,,,0.00,0.000000,,2013-06-18 13:33:00,
2013-06-18 04:02:00,69.0,58.0,-100.00,East,89,10.0,15.0,68,0.00,,,0.00,0.000000,,2013-06-18 14:02:00,
2013-06-18 04:11:00,69.0,58.0,-100.00,East,89,10.0,15.0,68,0.00,,,0.00,0.000000,,2013-06-18 14:11:00,
2013-06-18 04:22:00,69.0,58.0,-100.00,East,89,10.0,15.0,68,0.00,,,0.00,0.000000,,2013-06-18 14:22:00,
2013-06-18 04:33:00,69.0,58.0,-100.00,East,89,10.0,15.0,68,0.00,,,0.00,0.000000,,2013-06-18 14:33:00,
2013-06-18 05:02:00,66.0,56.0,-100.00,ESE,115,8.0,15.0,69,0.00,,,-99.99,0.000000,,2013-06-18 15:02:00,
2013-06-18 05:11:00,66.0,56.0,-100.00,ESE,115,8.0,15.0,69,0.00,,,-99.99,0.000000,,2013-06-18 15:11:00,
2013-06-18 05:22:00,66.0,56.0,-100.00,ESE,115,8.0,15.0,69,0.00,,,-99.99,0.000000,,2013-06-18 15:22:00,
2013-06-18 05:33:00,66.0,56.0,-100.00,ESE,115,8.0,15.0,69,0.00,,,-99.99,0.000000,,2013-06-18 15:33:00,
2013-06-18 06:01:00,66.0,59.0,-100.00,ESE,110,8.0,13.0,77,0.00,,,0.00,0.000000,,2013-06-18 16:01:00,
2013-06-18 06:11:00,66.0,59.0,-100.00,ESE,110,8.0,13.0,77,0.00,,,0.00,0.000000,,2013-06-18 16:11:00,
2013-06-18 06:22:00,66.0,59.0,-100.00,ESE,110,8.0,13.0,77,0.00,,,0.00,0.000000,,2013-06-18 16:22:00,
2013-06-18 06:33:00,66.0,59.0,-100.00,ESE,110,8.0,13.0,77,0.00,,,0.00,0.000000,,2013-06-18 16:33:00,
2013-06-18 07:02:00,70.0,58.0,-100.00,East,79,8.0,15.0,66,0.00,,,0.00,40.000000,,2013-06-18 17:02:00,
2013-06-18 07:11:00,70.0,58.0,-100.00,East,79,8.0,15.0,66,0.00,,,0.00,40.000000,,2013-06-18 17:11:00,
2013-06-18 07:22:00,70.0,58.0,-100.00,East,79,8.0,15.0,66,0.00,,,0.00,40.000000,,2013-06-18 17:22:00,
2013-06-18 07:33:00,70.0,58.0,-100.00,East,79,8.0,15.0,66,0.00,,,0.00,40.000000,,2013-06-18 17:33:00,
2013-06-18 08:01:00,78.0,62.0,-100.00,ESE,120,4.0,12.0,57,0.00,,,0.00,239.000000,,2013-06-18 18:01:00,
2013-06-18 08:11:00,78.0,62.0,-100.00,ESE,120,4.0,12.0,57,0.00,,,0.00,239.000000,,2013-06-18 18:11:00,
2013-06-18 08:22:00,78.0,62.0,-100.00,ESE,120,4.0,12.0,57,0.00,,,0.00,239.000000,,2013-06-18 18:22:00,
2013-06-18 08:33:00,78.0,62.0,-100.00,ESE,120,4.0,12.0,57,0.00,,,0.00,239.000000,,2013-06-18 18:33:00,
2013-06-18 09:01:00,81.0,61.0,-100.00,WNW,299,3.0,11.0,50,0.00,,,0.00,475.000000,,2013-06-18 19:01:00,
2013-06-18 09:11:00,81.0,61.0,-100.00,WNW,299,3.0,11.0,50,0.00,,,0.00,475.000000,,2013-06-18 19:11:00,
2013-06-18 09:22:00,81.0,61.0,-100.00,WNW,299,3.0,11.0,50,0.00,,,0.00,475.000000,,2013-06-18 19:22:00,
2013-06-18 09:33:00,81.0,61.0,-100.00,WNW,299,3.0,11.0,50,0.00,,,0.00,475.000000,,2013-06-18 19:33:00,
2013-06-18 10:01:00,82.0,61.0,-100.00,West,277,9.0,14.0,49,0.00,,,0.00,703.000000,,2013-06-18 20:01:00,
2013-06-18 10:11:00,82.0,61.0,-100.00,West,277,9.0,14.0,49,0.00,,,0.00,703.000000,,2013-06-18 20:11:00,
2013-06-18 10:22:00,82.0,61.0,-100.00,West,277,9.0,14.0,49,0.00,,,0.00,703.000000,,2013-06-18 20:22:00,
2013-06-18 10:33:00,82.0,61.0,-100.00,West,277,9.0,14.0,49,0.00,,,0.00,703.000000,,2013-06-18 20:33:00,
2013-06-18 11:01:00,84.0,62.0,-100.00,West,281,12.0,17.0,47,0.00,,,0.00,859.000000,,2013-06-18 21:01:00,
2013-06-18 11:11:00,84.0,62.0,-100.00,West,281,12.0,17.0,47,0.00,,,0.00,859.000000,,2013-06-18 21:11:00,
2013-06-18 11:22:00,84.0,62.0,-100.00,West,281,12.0,17.0,47,0.00,,,0.00,859.000000,,2013-06-18 21:22:00,
2013-06-18 11:33:00,84.0,62.0,-100.00,West,281,12.0,17.0,47,0.00,,,0.00,859.000000,,2013-06-18 21:33:00,
2013-06-18 12:01:00,81.0,62.0,-100.00,West,278,10.0,18.0,52,0.00,,,0.00,433.000000,,2013-06-18 22:01:00,
2013-06-18 12:11:00,81.0,62.0,-100.00,West,278,10.0,18.0,52,0.00,,,0.00,433.000000,,2013-06-18 22:11:00,
2013-06-18 12:22:00,81.0,62.0,-100.00,West,278,10.0,18.0,52,0.00,,,0.00,433.000000,,2013-06-18 22:22:00,
2013-06-18 12:34:00,81.0,62.0,-100.00,West,278,10.0,18.0,52,0.00,,,0.00,433.000000,,2013-06-18 22:34:00,
2013-06-18 12:35:00,80.0,62.0,-100.00,West,267,13.0,19.0,54,0.00,,,0.00,409.000000,,2013-06-18 22:35:00,
2013-06-18 13:01:00,80.0,62.0,-100.00,West,267,13.0,19.0,54,0.00,,,0.00,409.000000,,2013-06-18 23:01:00,
2013-06-18 13:11:00,80.0,62.0,-100.00,West,267,13.0,19.0,54,0.00,,,0.00,409.000000,,2013-06-18 23:11:00,
2013-06-18 13:23:00,80.0,62.0,-100.00,West,267,13.0,19.0,54,0.00,,,0.00,409.000000,,2013-06-18 23:23:00,
2013-06-18 14:11:00,79.0,63.0,-100.00,West,265,12.0,18.0,58,0.00,,,0.00,305.000000,,2013-06-19 00:11:00,
2013-06-18 14:22:00,79.0,63.0,-100.00,West,265,12.0,18.0,58,0.00,,,0.00,305.000000,,2013-06-19 00:22:00,
2013-06-18 14:33:00,79.0,63.0,-100.00,West,265,12.0,18.0,58,0.00,,,0.00,305.000000,,2013-06-19 00:33:00,
2013-06-18 15:01:00,78.0,64.0,-100.00,WNW,302,6.0,14.0,62,0.00,,,0.00,220.000000,,2013-06-19 01:01:00,
2013-06-18 15:11:00,78.0,64.0,-100.00,WNW,302,6.0,14.0,62,0.00,,,0.00,220.000000,,2013-06-19 01:11:00,
2013-06-18 15:22:00,78.0,64.0,-100.00,WNW,302,6.0,14.0,62,0.00,,,0.00,220.000000,,2013-06-19 01:22:00,
2013-06-18 15:32:00,78.0,64.0,-100.00,WNW,302,6.0,14.0,62,0.00,,,0.00,220.000000,,2013-06-19 01:32:00,
2013-06-18 16:01:00,76.0,65.0,-100.00,NNW,336,4.0,11.0,70,0.00,,,0.00,99.000000,,2013-06-19 02:01:00,
2013-06-18 16:11:00,76.0,65.0,-100.00,NNW,336,4.0,11.0,70,0.00,,,0.00,99.000000,,2013-06-19 02:11:00,
2013-06-18 16:21:00,76.0,65.0,-100.00,NNW,336,4.0,11.0,70,0.00,,,0.00,99.000000,,2013-06-19 02:21:00,
2013-06-18 16:32:00,76.0,65.0,-100.00,NNW,336,4.0,11.0,70,0.00,,,0.00,99.000000,,2013-06-19 02:32:00,
2013-06-18 17:01:00,76.0,66.0,-100.00,NW,316,4.0,9.0,71,0.00,,,0.00,62.000000,,2013-06-19 03:01:00,
2013-06-18 17:11:00,76.0,66.0,-100.00,NW,316,4.0,9.0,71,0.00,,,0.00,62.000000,,2013-06-19 03:11:00,
2013-06-18 17:21:00,76.0,66.0,-100.00,NW,316,4.0,9.0,71,0.00,,,0.00,62.000000,,2013-06-19 03:21:00,
2013-06-18 17:32:00,76.0,66.0,-100.00,NW,316,4.0,9.0,71,0.00,,,0.00,62.000000,,2013-06-19 03:32:00,
2013-06-18 18:01:00,76.0,65.0,-100.00,West,265,4.0,9.0,69,0.00,,,0.00,43.000000,,2013-06-19 04:01:00,
2013-06-18 18:11:00,76.0,65.0,-100.00,West,265,4.0,9.0,69,0.00,,,0.00,43.000000,,2013-06-19 04:11:00,
2013-06-18 18:22:00,76.0,65.0,-100.00,West,265,4.0,9.0,69,0.00,,,0.00,43.000000,,2013-06-19 04:22:00,
2013-06-18 18:32:00,76.0,65.0,-100.00,West,265,4.0,9.0,69,0.00,,,0.00,43.000000,,2013-06-19 04:32:00,
2013-06-18 19:01:00,76.0,62.0,-100.00,ENE,57,12.0,21.0,61,0.00,,,0.00,26.000000,,2013-06-19 05:01:00,
2013-06-18 19:11:00,76.0,62.0,-100.00,ENE,57,12.0,21.0,61,0.00,,,0.00,26.000000,,2013-06-19 05:11:00,
2013-06-18 19:22:00,76.0,62.0,-100.00,ENE,57,12.0,21.0,61,0.00,,,0.00,26.000000,,2013-06-19 05:22:00,
2013-06-18 19:32:00,76.0,62.0,-100.00,ENE,57,12.0,21.0,61,0.00,,,0.00,26.000000,,2013-06-19 05:32:00,
2013-06-18 20:01:00,75.0,60.0,-100.00,ENE,59,12.0,19.0,60,0.00,,,0.00,4.000000,,2013-06-19 06:01:00,
2013-06-18 20:11:00,75.0,60.0,-100.00,ENE,59,12.0,19.0,60,0.00,,,0.00,4.000000,,2013-06-19 06:11:00,
2013-06-18 20:21:00,75.0,60.0,-100.00,ENE,59,12.0,19.0,60,0.00,,,0.00,4.000000,,2013-06-19 06:21:00,
2013-06-18 20:33:00,75.0,60.0,-100.00,ENE,59,12.0,19.0,60,0.00,,,0.00,4.000000,,2013-06-19 06:33:00,
2013-06-18 21:01:00,74.0,61.0,-100.00,ENE,65,16.0,24.0,65,0.00,,,0.00,0.000000,,2013-06-19 07:01:00,
2013-06-18 21:11:00,74.0,61.0,-100.00,ENE,65,16.0,24.0,65,0.00,,,0.00,0.000000,,2013-06-19 07:11:00,
2013-06-18 21:22:00,74.0,61.0,-100.00,ENE,65,16.0,24.0,65,0.00,,,0.00,0.000000,,2013-06-19 07:22:00,
2013-06-18 21:33:00,74.0,61.0,-100.00,ENE,65,16.0,24.0,65,0.00,,,0.00,0.000000,,2013-06-19 07:33:00,
2013-06-18 22:02:00,74.0,61.0,-100.00,ENE,71,14.0,19.0,64,0.00,,,0.00,0.000000,,2013-06-19 08:02:00,
2013-06-18 22:11:00,74.0,61.0,-100.00,ENE,71,14.0,19.0,64,0.00,,,0.00,0.000000,,2013-06-19 08:11:00,
2013-06-18 22:22:00,74.0,61.0,-100.00,ENE,71,14.0,19.0,64,0.00,,,0.00,0.000000,,2013-06-19 08:22:00,
2013-06-18 22:33:00,74.0,61.0,-100.00,ENE,71,14.0,19.0,64,0.00,,,0.00,0.000000,,2013-06-19 08:33:00,
2013-06-18 23:02:00,74.0,61.0,-100.00,ENE,57,10.0,17.0,64,0.00,,,0.00,0.000000,,2013-06-19 09:02:00,
2013-06-18 23:11:00,74.0,61.0,-100.00,ENE,57,10.0,17.0,64,0.00,,,0.00,0.000000,,2013-06-19 09:11:00,
2013-06-18 23:22:00,74.0,61.0,-100.00,ENE,57,10.0,17.0,64,0.00,,,0.00,0.000000,,2013-06-19 09:22:00,
2013-06-18 23:34:00,74.0,61.0,-100.00,ENE,57,10.0,17.0,64,0.00,,,0.00,0.000000,,2013-06-19 09:34:00,